マクノート彗星

C/2009 K5 ( McNaught )

English version
Home page
Updated on November 5, 2020

---------------------------------------------------------------------

・ プロフィール

発見日 2009年5月27日
発見光度 17.7等
発見者 R. H. McNaught (Siding Spring)

・ 写真集

・ 軌道要素

Epoch 2010 May 4.0 TT = JDT 2455320.5
T 2010 Apr. 30.02335 TT                                 MPC
q   1.4223949            (2000.0)            P               Q
z  -0.0005906      Peri.   66.17301     -0.29950886     +0.09770465
 +/-0.0000002      Node   257.85586     -0.67324337     +0.68320579
e   1.0008401      Incl.  103.87942     +0.67604572     +0.72365990
From 2307 observations 2009 May 27-2011 Nov. 26, mean residual 0".5.

・ 星図

・ 光度変化

        m1 = 5.0 + 5 logΔ + 14.5 log r(t - 20)

---------------------------------------------------------------------

軌道要素はM.P.E.C. 2013-B90に掲載されたものです。
星図はステラナビゲータ Ver.8 (アストロアーツ) で作成したものです。
光度グラフはComet for Windowsで作成したものです。

---------------------------------------------------------------------

Copyright(C) Seiichi Yoshida (comet@aerith.net). All rights reserved.